Simultaneous Nadir Overpasses (SNOs) Predictions

Prediction of SNOs between AQUA and GOES-15 Satellite Orbit:

Table of predicted SNOs for the next 14.0 days since TLE Epoch: 3/1/2019
Index Date Time (AQUA) AQUA Lat,Lon GOES-15 Lat,Lon Distance(km) Time Diff (sec)
1 03/01/2019 22:04:26 0.27,-127.18 0.01,-128.34 131.90 80
2 03/02/2019 10:25:40 0.86,-132.33 -0.00,-128.39 448.60 80
3 03/03/2019 21:52:15 0.89,-124.22 -0.00,-128.35 469.53 80
4 03/04/2019 10:13:30 0.19,-129.38 0.00,-128.40 111.14 80
5 03/06/2019 10:01:19 -0.42,-126.42 0.00,-128.41 226.01 80
6 03/06/2019 22:22:43 -0.70,-131.61 -0.00,-128.36 369.27 80
7 03/08/2019 22:10:32 -0.08,-128.65 -0.00,-128.36 32.60 80
8 03/10/2019 21:58:21 0.55,-125.69 -0.00,-128.36 303.63 80
9 03/11/2019 10:19:37 0.55,-130.85 0.00,-128.41 277.76 80
10 03/13/2019 10:07:27 -0.13,-127.90 0.00,-128.40 57.56 80
11 03/15/2019 09:55:16 -0.75,-124.94 -0.00,-128.38 391.85 80




NCC Satellite Simultaneous Nadir Overpasses (SNOs) Prediction Service
